Location: Gniazdowice
(50.2124°N, 20.2673°E)
Time: 21:44:08
(UTC+00:00)

CZ-2C R/B - Pass Details

Date: 23 May 2024
Orbit: 784 x 868 km, 98.3° (Epoch: 22 June)

Event Time Altitude Azimuth Distance (km) Brightness Sun altitude
Exits shadow 00:47:47 11° 172° (S) 2,266 4.5 -13.4°
Maximum altitude 00:52:45 73° 257° (WSW) 825 2.5 -12.9°
Drops below altitude 10° 00:57:57 10° 342° (NNW) 2,363 5.6 -12.5°
Sets 01:00:19 0° 345° (NNW) 3,304 6.4 -12.3°
